Torna al catalogo

NIMBUS 2 DEB

AttivoLEO
NORAD 39294·DEBRIS·🇺🇸 United States

Lanciato May 15, 1966 da Vandenberg Space Force Base

Loading…

Prossimi Passaggi (prossime 24 ore)

TLE

AggiornatoSource: Space-Track

Epoca: Sep 14, 2026, 04:14 UTC

1 39294U 66040BC  26257.17682462  .00001232  00000-0  20742-2 0  9996
2 39294 100.4404 165.0663 0058391 324.0703  35.6508 13.47457052631672

Traccia NIMBUS 2 DEB in tempo reale con AllMySat

Download on the App Store